Location: Newark
(17.9939°S, 31.0481°E)
Time: 23:17:13
(UTC+00:00)

Vanguard 1 Rocket - All Passes

Search period start: 21 November 2019 00:00
Search period end: 01 December 2019 00:00
Orbit: 651 x 4226 km, 34.3° (Epoch: 20 November)

Date Brightness Start Highest point End Pass type
(mag) Time Alt. Az. Time Alt. Az. Time Alt. Az.
21 Nov - 06:57:46 10° N 07:06:01 20° NE 07:18:01 10° E daylight
21 Nov - 09:18:32 10° NW 09:33:06 72° NE 09:58:20 10° ESE daylight
21 Nov - 11:46:04 10° W 12:06:32 64° SSW 12:32:51 10° ESE daylight
21 Nov - 14:19:49 10° WSW 14:45:06 52° S 15:05:52 10° ESE daylight
21 Nov - 16:56:12 10° WSW 17:21:27 69° SSE 17:35:40 10° ENE visible
21 Nov - 19:32:27 10° WSW 19:50:53 53° NW 20:00:25 10° NNE visible
22 Nov - 08:08:10 10° NNW 08:20:02 49° NE 08:41:12 10° ESE daylight
22 Nov - 10:33:05 10° WNW 10:50:20 76° SSW 11:17:12 10° ESE daylight
22 Nov - 13:04:05 10° W 13:27:21 53° S 13:51:16 10° ESE daylight
22 Nov - 15:39:34 10° WSW 16:05:45 58° SSE 16:23:08 10° E daylight
22 Nov - 18:15:30 10° WSW 18:38:24 80° NW 18:50:10 10° NE visible
22 Nov - 20:54:17 10° W 21:04:23 21° NW 21:11:08 10° N visible
23 Nov - 06:59:07 10° N 07:08:09 27° NE 07:22:40 10° ESE daylight
23 Nov - 09:21:19 10° NW 09:35:33 85° NE 10:00:59 10° ESE daylight
23 Nov - 11:49:36 10° W 12:09:52 58° SSW 12:35:54 10° ESE daylight
23 Nov - 14:23:18 10° WSW 14:48:46 53° S 15:09:31 10° E daylight
23 Nov - 16:58:52 10° WSW 17:24:30 79° SSE 17:38:56 10° ENE visible
23 Nov - 19:35:34 10° WSW 19:53:08 42° NW 20:02:49 10° NNE visible
24 Nov - 05:54:21 10° NE 05:56:50 11° NE 05:59:38 10° ENE daylight
24 Nov - 08:10:36 10° NW 08:22:16 60° NE 08:44:09 10° ESE daylight
24 Nov - 10:36:22 10° WNW 10:53:23 68° SSW 11:19:57 10° ESE daylight
24 Nov - 13:07:45 10° WSW 13:31:02 52° S 13:54:48 10° ESE daylight
24 Nov - 15:42:32 10° WSW 16:09:06 65° SSE 16:26:38 10° E daylight
24 Nov - 18:18:10 10° WSW 18:40:54 67° NW 18:52:57 10° NE visible
24 Nov - 20:59:49 10° W 21:06:36 14° NW 21:11:49 10° NNW visible
25 Nov - 07:01:01 10° NNW 07:10:17 36° NE 07:26:30 10° ESE daylight
25 Nov - 09:24:19 10° WNW 09:38:16 84° SSW 10:03:35 10° ESE daylight
25 Nov - 11:53:13 10° W 12:13:23 54° S 12:39:08 10° ESE daylight
25 Nov - 14:26:37 10° WSW 14:52:21 56° SSE 15:13:10 10° E daylight
25 Nov - 17:01:29 10° WSW 17:27:18 90° SSE 17:42:01 10° ENE visible
25 Nov - 19:39:06 10° WSW 19:55:16 32° NW 20:04:54 10° N visible
26 Nov - 05:53:23 10° NNE 05:59:06 17° NE 06:07:01 10° E daylight
26 Nov - 08:13:17 10° NW 08:24:41 73° NE 08:46:54 10° ESE daylight
26 Nov - 10:39:48 10° W 10:56:38 61° SSW 11:22:50 10° ESE daylight
26 Nov - 13:11:20 10° WSW 13:34:43 52° S 13:58:26 10° ESE daylight
26 Nov - 15:45:21 10° WSW 16:12:13 72° SSE 16:29:59 10° ENE daylight
26 Nov - 18:21:01 10° WSW 18:43:11 55° NW 18:55:30 10° NNE visible
27 Nov - 07:03:16 10° NNW 07:12:29 46° NE 07:29:49 10° ESE daylight
27 Nov - 09:27:31 10° WNW 09:41:14 73° SSW 10:06:13 10° ESE daylight
27 Nov - 11:56:52 10° WSW 12:17:01 52° S 12:42:33 10° ESE daylight
27 Nov - 14:29:45 10° WSW 14:55:46 61° SSE 15:16:44 10° E daylight
27 Nov - 17:04:07 10° WSW 17:29:52 78° NW 17:44:53 10° NE visible
27 Nov - 19:43:17 10° W 19:57:22 24° NW 20:06:34 10° N visible
28 Nov - 05:54:37 10° N 06:01:20 24° NE 06:11:52 10° E daylight
28 Nov - 08:16:12 10° NW 08:27:20 87° NE 08:49:31 10° ESE daylight
28 Nov - 10:43:23 10° W 11:00:05 55° SSW 11:25:52 10° ESE daylight
28 Nov - 13:14:46 10° WSW 13:38:20 54° S 14:02:06 10° E daylight
28 Nov - 15:48:04 10° WSW 16:15:05 82° SSE 16:33:09 10° ENE daylight
28 Nov - 18:24:08 10° WSW 18:45:19 44° NW 18:57:48 10° NNE visible
29 Nov - 07:05:49 10° NW 07:14:52 59° NE 07:32:48 10° ESE daylight
29 Nov - 09:30:53 10° W 09:44:26 64° SSW 10:08:55 10° ESE daylight
29 Nov - 12:00:30 10° WSW 12:20:43 51° S 12:46:07 10° ESE daylight
29 Nov - 14:32:44 10° WSW 14:58:56 67° SSE 15:20:10 10° ENE daylight
29 Nov - 17:06:50 10° WSW 17:32:13 67° NW 17:47:32 10° NE visible
29 Nov - 19:48:29 10° W 19:59:32 18° NW 20:07:34 10° NNW visible
30 Nov - 05:56:30 10° NNW 06:03:34 32° NE 06:15:48 10° ESE daylight
30 Nov - 08:19:19 10° WNW 08:30:13 79° SSW 08:52:06 10° ESE daylight
30 Nov - 10:47:02 10° W 11:03:41 52° S 11:29:07 10° ESE daylight
30 Nov - 13:18:04 10° WSW 13:41:50 58° SSE 14:05:44 10° E daylight
30 Nov - 15:50:45 10° WSW 16:17:43 88° NW 16:36:06 10° NE daylight
30 Nov - 18:27:39 10° WSW 18:47:23 35° NW 18:59:48 10° NNE visible
